Simultaneous Nadir Overpasses (SNOs) Predictions

Prediction of SNOs between LANDSAT-8 and NOAA-19 Satellite Orbit:

Table of predicted SNOs for the next 14.0 days since TLE Epoch: 3/18/2023
Index Date (LANDSAT-8) Time (LANDSAT-8) Lat,Lon (LANDSAT-8) SZA (LANDSAT-8 ) Date (NOAA-19) Time (NOAA-19) Lat,Lon (NOAA-19) SZA (NOAA-19 ) Distance(km) Time Diff (sec)
1 03/19/2023 09:28:53 80.94, 74.71 83.13 03/19/2023 09:29:00 80.93, 74.71 83.13 1.00 7
2 03/21/2023 15:02:36 -80.92, 170.97 97.79 03/21/2023 15:01:35 -80.93, 171.08 97.78 2.63 61
3 03/21/2023 15:52:02 80.92, -21.33 82.22 03/21/2023 15:52:37 80.93, -21.27 82.24 1.62 35
4 03/23/2023 21:25:43 -80.94, 75.48 98.62 03/23/2023 21:25:11 -80.93, 75.59 98.62 2.17 32
5 03/23/2023 22:15:09 80.94,-116.85 81.38 03/23/2023 22:16:13 80.93,-116.96 81.39 2.25 64
6 03/26/2023 03:48:50 -80.95, -20.19 99.47 03/26/2023 03:48:48 -80.93, -20.35 99.50 3.37 2
7 03/28/2023 09:22:31 80.92, 76.00 79.62 03/28/2023 09:21:28 80.93, 76.05 79.61 1.79 63
8 03/28/2023 10:11:58 -80.92,-116.37 100.40 03/28/2023 10:12:25 -80.93,-116.35 100.38 1.52 27
9 03/30/2023 15:45:37 80.93, -19.67 78.77 03/30/2023 15:45:03 80.93, -19.50 78.78 3.09 34



Historial Predications of SNOs between LANDSAT-8 and NOAA-19
